This is the latest recevied weather packets stored in our database for station/object WX4HP-13. If no packets are shown the sender has not sent any weather packets the latest 10 day(s).
| Time | Temp. | Humidity | Pressure | Rain* | Wind** | Luminosity | Snow |
|---|---|---|---|---|---|---|---|
| 1777385996 | 16.67° C | 95% | 1020.2 hPa | 1.78 mm | - | - | - |
| 1777385694 | 16.67° C | 95% | 1020.5 hPa | 1.78 mm | - | - | - |
| 1777385396 | 17.22° C | 95% | 1020.7 hPa | 1.78 mm | - | - | - |
| 1777385096 | 17.22° C | 95% | 1020.7 hPa | 1.78 mm | - | - | - |
| 1777384795 | 17.22° C | 96% | 1020.8 hPa | 1.78 mm | - | - | - |
| 1777384494 | 17.22° C | 96% | 1020.8 hPa | 1.78 mm | - | - | - |
| 1777384194 | 17.22° C | 96% | 1020 hPa | 1.52 mm | - | - | - |
| 1777383895 | 17.22° C | 96% | 1019.8 hPa | 1.52 mm | - | - | - |
| 1777383595 | 17.22° C | 96% | 1020.7 hPa | 1.02 mm | - | - | - |
| 1777382996 | 17.22° C | 96% | 1020.5 hPa | 0.76 mm | - | - | - |
| 1777382696 | 17.22° C | 96% | 1020.6 hPa | 0 mm | - | - | - |
| 1777382395 | 17.22° C | 96% | 1021 hPa | 0 mm | - | - | - |
| 1777382096 | 17.22° C | 96% | 1020.6 hPa | 0 mm | - | - | - |
| 1777381794 | 17.22° C | 96% | 1020.6 hPa | 0.25 mm | - | - | - |
| 1777381195 | 17.22° C | 96% | 1019.8 hPa | 0.25 mm | - | - | - |
| 1777380896 | 17.22° C | 96% | 1019.9 hPa | 0.51 mm | - | - | - |
| 1777380297 | 17.78° C | 96% | 1019.9 hPa | 0.76 mm | - | - | - |
| 1777379995 | 17.78° C | 96% | 1019.8 hPa | 1.02 mm | - | - | - |
| 1777379695 | 17.78° C | 96% | 1019.7 hPa | 1.27 mm | - | - | - |
| 1777379395 | 17.78° C | 96% | 1019.6 hPa | 1.78 mm | - | - | - |
| 1777379096 | 17.78° C | 96% | 1019.6 hPa | 4.32 mm | - | - | - |
| 1777378497 | 17.78° C | 96% | 1019.6 hPa | 7.11 mm | - | - | - |
| 1777378196 | 17.78° C | 96% | 1020 hPa | 11.18 mm | - | - | - |
| 1777377896 | 17.78° C | 96% | 1019.7 hPa | 12.7 mm | - | - | - |
| 1777377595 | 17.78° C | 95% | 1019.5 hPa | 14.73 mm | - | - | - |
* Rain latest hour (hover to see other rain measurements)
** Current wind speed in m/s (hover to see current wind gust speed)